Location: Cormont
(50.5693°N, 1.7416°E)
Time: 02:59:11
(UTC+00:00)

SPOT 3 Rocket - Pass Details

Date: 21 October 2019
Orbit: 779 x 794 km, 98.8° (Epoch: 20 November)

Event Time Altitude Azimuth Distance (km) Brightness Sun altitude
Exits shadow 18:26:37 26° 85° (E) 1,529 4.4 -16.1°
Maximum altitude 18:27:55 29° 60° (ENE) 1,428 4.4 -16.3°
Drops below altitude 10° 18:32:21 10° 2° (N) 2,371 6.1 -17.0°
Sets 18:34:56 0° 352° (N) 3,307 6.9 -17.4°
